C/2020 K5 ( PanSTARRS )

Japanese version
Home page
Updated on May 2, 2021

---------------------------------------------------------------------

* Profile

Discovery Date May 25, 2020
Magnitude 20.7 mag
Discoverer Pan-STARRS1 1.8-m Ritchey-Chretien reflector at Haleakala

* Pictures

* Orbital Elements

Epoch 2021 May 26.0 TT = JDT 2459360.5
T 2021 June 5.56959 TT                                  Rudenko
q   1.5355993            (2000.0)            P               Q
z  -0.0009942      Peri.  249.58951     +0.33976120     +0.19780431
 +/-0.0000029      Node    86.16427     +0.00196933     +0.97748177
e   1.0015267      Incl.   67.15229     -0.94050967     +0.07350399
From 59 observations 2020 Apr. 3-2021 Mar. 22, mean residual 0".5.

* Finding Charts

* Magnitudes Graph

        m1 = 14.0 + 5 log d + 8.0 log r(t + 200)

        * Gray curve is:  m1 = 10.5 + 5 log d + 10.0 log r

---------------------------------------------------------------------

The orbital elements are published on M.P.E.C. 2021-F115.
The charts are made with StellaNavigator Ver.10 (AstroArts).
The magnitudes graphs are made with Comet for Windows.

---------------------------------------------------------------------

Copyright(C) Seiichi Yoshida (comet@aerith.net). All rights reserved.